Jaffrey, NH

12:29 PM EDT on September 29, 2016 (GMT -0400)
Jaffrey Airport-Silver Ranch

Weather History for KAFN - August, 2013

Change the Weather History Date:

Saturday, August 24, 2013

  Actual Average Record
Temperature  
Mean Temperature 60 °F -  
Max Temperature 75 °F 75 °F 86 °F (1998)
Min Temperature 46 °F 53 °F 46 °F (2013)
Degree Days  
Heating Degree Days 4    
Growing Degree Days 10 (Base 50)    
Moisture  
Dew Point 47 °F    
Average Humidity 66    
Maximum Humidity 93    
Minimum Humidity 28    
Precipitation  
Precipitation 0.00 in - - ()
Sea Level Pressure  
Sea Level Pressure 30.32 in    
Wind  
Wind Speed 1 mph (NNE)    
Max Wind Speed 8 mph    
Max Gust Speed -    
Visibility 10 miles    
Events      
Averages and records for this station are not official NWS values.
T = Trace of Precipitation, MM = Missing Value Source: NWS Daily Summary

Daily Weather History Graph

Daily Weather History Graph

Search for Another Location

Airport or City:

Trip Planner

Search our weather history database for the weather conditions in past years. The results will help you decide how hot, cold, wet, or windy it might be!

Date:

Astronomy

Aug. 24, 2013 Rise Set
Actual Time 6:04 AM EDT 7:35 PM EDT
Civil Twilight 5:34 AM EDT 8:05 PM EDT
Nautical Twilight 4:58 AM EDT 8:40 PM EDT
Astronomical Twilight 4:20 AM EDT 9:18 PM EDT
Moon 9:20 PM EDT (8/24) 10:08 AM EDT (8/24)
Length of Visible Light 14h 30m
Length of Day
13h 31m
Waning Gibbous, 84% of the Moon is Illuminated
Aug 24
Waning Gibbous
Aug 28
Last Quarter
Sep 5
New
Sep 12
First Quarter
Sep 19
Full

Hourly Weather History & Observations

Time (EDT) Temp. Dew Point Humidity Pressure Visibility Wind Dir Wind Speed Gust Speed Precip Events Conditions
12:52 AM 52.0 °F 48.0 °F 86% 30.21 in 10.0 mi Calm Calm - N/A   Clear
1:52 AM 51.1 °F 48.0 °F 89% 30.21 in 10.0 mi Calm Calm - N/A   Clear
2:52 AM 50.0 °F 46.9 °F 89% 30.23 in 10.0 mi Calm Calm - N/A   Clear
3:52 AM 48.0 °F 46.0 °F 93% 30.25 in 10.0 mi Calm Calm - N/A   Clear
4:52 AM 46.9 °F 44.1 °F 90% 30.27 in 10.0 mi Calm Calm - N/A   Clear
5:52 AM 46.0 °F 43.0 °F 89% 30.30 in 10.0 mi Calm Calm - N/A   Clear
6:52 AM 46.0 °F 43.0 °F 89% 30.32 in 10.0 mi Calm Calm - N/A   Clear
7:52 AM 52.0 °F 48.9 °F 89% 30.33 in 10.0 mi Calm Calm - N/A   Clear
8:52 AM 61.0 °F 48.9 °F 64% 30.34 in 10.0 mi Calm Calm - N/A   Clear
9:52 AM 64.9 °F 46.9 °F 52% 30.35 in 10.0 mi Variable 3.5 mph - N/A   Clear
10:52 AM 66.9 °F 44.1 °F 44% 30.35 in 10.0 mi Calm Calm - N/A   Clear
11:52 AM 69.1 °F 43.0 °F 39% 30.35 in 10.0 mi Variable 4.6 mph - N/A   Clear
12:52 PM 71.1 °F 46.0 °F 41% 30.34 in 10.0 mi NNE 8.1 mph - N/A   Clear
1:52 PM 72.0 °F 43.0 °F 35% 30.34 in 10.0 mi Variable 4.6 mph - N/A   Clear
2:52 PM 75.0 °F 39.9 °F 28% 30.33 in 10.0 mi Variable 3.5 mph - N/A   Clear
3:52 PM 75.0 °F 41.0 °F 29% 30.33 in 10.0 mi Calm Calm - N/A   Clear
4:52 PM 75.0 °F 44.1 °F 33% 30.32 in 10.0 mi Calm Calm - N/A   Clear
5:52 PM 73.9 °F 43.0 °F 33% 30.32 in 10.0 mi Calm Calm - N/A   Clear
6:52 PM 71.1 °F 51.1 °F 49% 30.33 in 10.0 mi Calm Calm - N/A   Clear
7:52 PM 63.0 °F 54.0 °F 72% 30.35 in 10.0 mi Calm Calm - N/A   Clear
8:52 PM 57.9 °F 53.1 °F 84% 30.36 in 10.0 mi Calm Calm - N/A   Clear
9:52 PM 55.0 °F 52.0 °F 89% 30.37 in 10.0 mi Calm Calm - N/A   Clear
10:52 PM 54.0 °F 51.1 °F 90% 30.38 in 10.0 mi Calm Calm - N/A   Clear
11:52 PM 52.0 °F 50.0 °F 93% 30.38 in 10.0 mi Calm Calm - N/A   Clear